Погода в Фомине-Негачевке

Россия / Липецкая область     52°02′18″N   39°03′31″E
темп.,
°C
ветер,
м/с
пор.,
м/с
влажн.,
%
обл.,
%
осадки,
мм/ч
давл.,
гПа
погр.,
м
13 апреля, вт
вт1300:00+12вюв4106463 0.0 1025203
03:00+10вюв496890 0.0 1025176
06:00+9вюв3974100 0.0 1025169
09:00+14юв5115152 0.0 1025440
12:00+19юв71131100 0.0 10241224
15:00+21юв811260 0.0 10231909
18:00+19юв610335 0.0 1022366
21:00+14вюв51349100 0.0 1023303
14 апреля, ср
ср1400:00+13юв41152100 0.0 1022238
03:00+10вюв3761100 0.0 1021123
06:00+9в376892 0.0 1021141
09:00+13юв5949100 0.0 1020453
12:00+18юв68299 0.0 10191364
15:00+20ююв572498 0.0 10172134
18:00+18юв463491 0.0 1016211
21:00+14вюв3343100 0.0 101724
15 апреля, чт
чт1500:00+12юв365999 0.0 1016127
03:00+11вюв336298 0.0 101636
06:00+10в2266100 0.0 101527
09:00+13в3455100 0.0 1015279
12:00+17ююв3441100 0.0 1014959
15:00+18ю244087 0.0 10131850
18:00+14ю4666100 0.3 1014314
21:00+12зсз017995 2.9 101450
16 апреля, пт
пт1600:00+11вюв227799 0.0 101418
03:00+10вюв2281100 0.1 101421
06:00+10зюз2390100 2.9 101476
09:00+11юз2384100 3.6 1015147
12:00+14юв1268100 0.2 1015442
15:00+17юв235389 0.3 10151127
18:00+16юз346159 0.1 1015223
21:00+12ссв1388100 3.1 101699
17 апреля, сб
сб1700:00+11ссв348666 0.4 101686
03:00+10ссв258949 1.0 1016114
06:00+9св6129347 0.0 1017442
09:00+11всв71183100 0.0 1017779
12:00+12всв71077100 0.1 1018988
15:00+13в7107198 1.4 10191286
18:00+9зсз1488100 2.1 1021245
21:00+11всв71270100 2.7 1022743